Location: Schommer Observatory
(40.5200°N, 74.4500°W)
Time: 23:19:57
(UTC-05:00)

ISS - Pass Details

Date: 11 November 2017
Orbit: 401 x 407 km, 51.6° (Epoch: 18 November)

Event Time Altitude Azimuth Distance (km) Brightness Sun altitude
Exits shadow 05:20:55 12° 345° (NNW) 1,330 -1.5 -15.2°
Maximum altitude 05:22:23 15° 14° (NNE) 1,178 -1.4 -14.9°
Drops below altitude 10° 05:24:25 10° 53° (NE) 1,454 -0.4 -14.5°
Sets 05:27:07 0° 78° (ENE) 2,312 1.3 -14.0°
